Fort Bridger AP, Fort Bridger, WY

9:05 PM MDT on September 19, 2017 (GMT -0600)
Fort Bridger

Weather History for KFBR - December, 2013

Change the Weather History Date:

Friday, December 27, 2013

  Actual Average (KEVW) Record (KEVW)
Temperature  
Mean Temperature 34 °F -  
Max Temperature 42 °F 26 °F 36 °F (1999)
Min Temperature 27 °F 14 °F -7 °F (2015)
Degree Days  
Heating Degree Days 30    
Moisture  
Dew Point 20 °F    
Average Humidity 60    
Maximum Humidity 74    
Minimum Humidity 43    
Precipitation  
Precipitation 0.00 in - - ()
Sea Level Pressure  
Sea Level Pressure 30.35 in    
Wind  
Wind Speed 13 mph (WSW)    
Max Wind Speed 16 mph    
Max Gust Speed 20 mph    
Visibility 10 miles    
Events      
Averages and records for this station are not official NWS values.
T = Trace of Precipitation, MM = Missing Value Source: NWS Daily Summary

Daily Weather History Graph

Daily Weather History Graph

Search for Another Location

Airport or City:

Trip Planner

Search our weather history database for the weather conditions in past years. The results will help you decide how hot, cold, wet, or windy it might be!

Date:

Astronomy

Dec. 27, 2013 Rise Set
Actual Time 7:46 AM MST 4:59 PM MST
Civil Twilight 7:15 AM MST 5:30 PM MST
Nautical Twilight 6:40 AM MST 6:05 PM MST
Astronomical Twilight 6:07 AM MST 6:38 PM MST
Moon 2:19 AM MST (12/27) 1:13 PM MST (12/27)
Length of Visible Light 10h 14m
Length of Day
9h 12m
Waning Crescent, 28% of the Moon is Illuminated
Dec 27
Waning Crescent
Jan 1
New
Jan 7
First Quarter
Jan 15
Full
Jan 23
Last Quarter

Hourly Weather History & Observations

Time (MST) Temp. Windchill Dew Point Humidity Pressure Visibility Wind Dir Wind Speed Gust Speed Precip Events Conditions
12:15 AM 31.5 °F 20.9 °F 20.8 °F 65% 30.43 in 10.0 mi WSW 15.0 mph - N/A   Clear
12:35 AM 30.6 °F 19.8 °F 20.8 °F 67% 30.42 in 10.0 mi WSW 15.0 mph - N/A   Clear
12:55 AM 31.6 °F 21.2 °F 21.2 °F 65% 30.41 in 10.0 mi WSW 15.0 mph - N/A   Clear
1:15 AM 30.4 °F 19.1 °F 21.2 °F 69% 30.41 in 10.0 mi WSW 16.1 mph - N/A   Clear
1:35 AM 31.5 °F 21.8 °F 21.6 °F 67% 30.40 in 10.0 mi WSW 12.7 mph - N/A   Clear
1:55 AM 32.0 °F 21.6 °F 21.7 °F 66% 30.40 in 10.0 mi WSW 15.0 mph - N/A   Clear
2:15 AM 29.8 °F 18.9 °F 21.2 °F 70% 30.40 in 10.0 mi WSW 15.0 mph - N/A   Clear
2:35 AM 31.8 °F 21.0 °F 21.9 °F 67% 30.41 in 10.0 mi WSW 16.1 mph - N/A   Clear
2:55 AM 32.0 °F 21.6 °F 22.1 °F 67% 30.41 in 10.0 mi WSW 15.0 mph - N/A   Clear
3:15 AM 30.6 °F 21.8 °F 21.4 °F 69% 30.41 in 10.0 mi West 10.4 mph - N/A   Clear
3:35 AM 28.9 °F 19.2 °F 20.8 °F 72% 30.40 in 10.0 mi WSW 11.5 mph - N/A   Clear
3:55 AM 28.2 °F 17.7 °F 20.7 °F 73% 30.40 in 10.0 mi West 12.7 mph - N/A   Clear
4:15 AM 28.0 °F 17.5 °F 20.8 °F 74% 30.40 in 10.0 mi West 12.7 mph - N/A   Clear
4:35 AM 31.1 °F 20.5 °F 22.1 °F 69% 30.40 in 10.0 mi WSW 15.0 mph - N/A   Clear
4:55 AM 29.1 °F 18.9 °F 21.2 °F 72% 30.41 in 10.0 mi West 12.7 mph - N/A   Clear
5:15 AM 30.9 °F 21.7 °F 21.2 °F 67% 30.41 in 10.0 mi West 11.5 mph - N/A   Clear
5:35 AM 29.7 °F 19.1 °F 21.0 °F 70% 30.40 in 10.0 mi West 13.8 mph - N/A   Clear
5:55 AM 29.1 °F 20.6 °F 20.5 °F 70% 30.41 in 10.0 mi West 9.2 mph - N/A   Clear
6:15 AM 27.7 °F 18.8 °F 19.9 °F 73% 30.41 in 10.0 mi West 9.2 mph - N/A   Clear
6:35 AM 28.2 °F 18.9 °F 20.1 °F 72% 30.42 in 10.0 mi West 10.4 mph - N/A   Clear
6:55 AM 27.5 °F 17.4 °F 19.4 °F 72% 30.42 in 10.0 mi WSW 11.5 mph - N/A   Clear
7:15 AM 28.0 °F 19.3 °F 19.4 °F 70% 30.42 in 10.0 mi WSW 9.2 mph - N/A   Clear
7:35 AM 28.6 °F 19.3 °F 19.6 °F 69% 30.43 in 10.0 mi West 10.4 mph - N/A   Clear
7:55 AM 27.5 °F 17.4 °F 19.0 °F 71% 30.43 in 10.0 mi WSW 11.5 mph - N/A   Clear
8:15 AM 29.1 °F 20.0 °F 19.8 °F 68% 30.43 in 10.0 mi West 10.4 mph - N/A   Clear
8:35 AM 29.3 °F 20.8 °F 19.8 °F 68% 30.43 in 10.0 mi West 9.2 mph - N/A   Clear
8:55 AM 29.7 °F 20.7 °F 19.8 °F 67% 30.43 in 10.0 mi West 10.4 mph - N/A   Clear
9:15 AM 32.0 °F 23.6 °F 20.8 °F 63% 30.43 in 10.0 mi West 10.4 mph - N/A   Clear
9:35 AM 33.1 °F 25.5 °F 21.7 °F 63% 30.43 in 10.0 mi West 9.2 mph - N/A   Clear
10:00 AM 35.6 °F 27.1 °F 22.6 °F 59% 30.43 in 10.0 mi West 12.7 mph - N/A   Clear
10:15 AM 35.8 °F 26.9 °F 22.8 °F 59% 30.43 in 10.0 mi West 13.8 mph - N/A   Clear
10:35 AM 36.0 °F 27.1 °F 23.0 °F 59% 30.43 in 10.0 mi West 13.8 mph - N/A   Clear
10:55 AM 37.4 °F 29.3 °F 23.7 °F 58% 30.43 in 10.0 mi West 12.7 mph - N/A   Clear
11:15 AM 39.6 °F 32.5 °F 22.5 °F 50% 30.42 in 10.0 mi West 11.5 mph - N/A   Clear
11:35 AM 40.3 °F 33.9 °F 23.4 °F 51% 30.41 in 10.0 mi West 10.4 mph - N/A   Clear
12:00 PM 41.7 °F 34.4 °F 22.5 °F 46% 30.40 in 10.0 mi West 13.8 mph 19.6 mph N/A   Clear
12:15 PM 41.9 °F 34.3 °F 22.8 °F 47% 30.38 in 10.0 mi West 15.0 mph - N/A   Clear
12:30 PM 41.9 °F 34.6 °F 20.7 °F 43% 30.38 in 10.0 mi West 13.8 mph 18.4 mph N/A   Clear
1:10 PM 41.9 °F 35.9 °F 22.8 °F 47% 30.36 in 10.0 mi WNW 10.4 mph - N/A   Clear
2:15 PM 42.4 °F 35.7 °F 22.5 °F 45% 30.33 in 10.0 mi West 12.7 mph - N/A   Clear
3:35 PM 42.3 °F 34.8 °F 23.5 °F 48% 30.30 in 10.0 mi WSW 15.0 mph - N/A   Clear
4:15 PM 41.2 °F 35.0 °F 22.5 °F 47% 30.30 in 10.0 mi WSW 10.4 mph - N/A   Clear
4:40 PM 39.4 °F 32.3 °F 21.7 °F 49% 30.29 in 10.0 mi WSW 11.5 mph - N/A   Clear
5:00 PM 38.1 °F 30.7 °F 20.8 °F 50% 30.29 in 10.0 mi WSW 11.5 mph - N/A   Clear
5:15 PM 36.9 °F 28.7 °F 20.5 °F 52% 30.28 in 10.0 mi WSW 12.7 mph - N/A   Clear
5:35 PM 36.5 °F 28.7 °F 19.9 °F 51% 30.27 in 10.0 mi WSW 11.5 mph - N/A   Clear
5:55 PM 36.3 °F 28.0 °F 18.3 °F 48% 30.27 in 10.0 mi WSW 12.7 mph - N/A   Clear
6:15 PM 35.6 °F 27.5 °F 18.3 °F 50% 30.27 in 10.0 mi WSW 11.5 mph - N/A   Clear
6:35 PM 36.3 °F 28.4 °F 18.1 °F 48% 30.27 in 10.0 mi WSW 11.5 mph - N/A   Clear
6:55 PM 34.3 °F 25.5 °F 18.3 °F 52% 30.27 in 10.0 mi WSW 12.7 mph - N/A   Clear
7:15 PM 34.2 °F 26.2 °F 17.6 °F 51% 30.26 in 10.0 mi WSW 10.4 mph - N/A   Clear
7:35 PM 32.5 °F 23.2 °F 17.6 °F 54% 30.26 in 10.0 mi West 12.7 mph - N/A   Clear
7:55 PM 32.2 °F 23.8 °F 17.8 °F 55% 30.25 in 10.0 mi WSW 10.4 mph - N/A   Clear
8:15 PM 33.1 °F 24.9 °F 17.4 °F 53% 30.24 in 10.0 mi WSW 10.4 mph - N/A   Clear
8:40 PM 32.7 °F 25.7 °F 16.7 °F 52% 30.24 in 10.0 mi WSW 8.1 mph - N/A   Clear
8:55 PM 32.2 °F 23.8 °F 17.4 °F 55% 30.24 in 10.0 mi WSW 10.4 mph - N/A   Clear
9:15 PM 31.1 °F 22.4 °F 17.4 °F 57% 30.22 in 10.0 mi WSW 10.4 mph - N/A   Clear
9:55 PM 31.1 °F 22.4 °F 17.6 °F 57% 30.22 in 10.0 mi West 10.4 mph - N/A   Clear
10:15 PM 30.6 °F 22.4 °F 17.6 °F 59% 30.22 in 10.0 mi West 9.2 mph - N/A   Clear
10:35 PM 31.6 °F 23.7 °F 18.1 °F 57% 30.22 in 10.0 mi West 9.2 mph - N/A   Clear
10:55 PM 31.6 °F 23.7 °F 18.3 °F 58% 30.21 in 10.0 mi West 9.2 mph - N/A   Clear
11:15 PM 30.9 °F 21.7 °F 18.1 °F 59% 30.20 in 10.0 mi WSW 11.5 mph - N/A   Clear
11:40 PM 32.0 °F 23.0 °F 18.3 °F 57% 30.19 in 10.0 mi WSW 11.5 mph - N/A   Clear
11:55 PM 34.7 °F 24.7 °F 17.8 °F 50% 30.18 in 10.0 mi WSW 16.1 mph - N/A   Clear